Home   Weather   Chernobyl   Past weeks

Flag for Ukraine Past Weather in Chernobyl, Ukraine — Yesterday and Last 2 Weeks

Now
34 °F

Chilly.


Feels Like: 29 °F
Forecast: 33 / 37 °F
Wind: 6 mph from Southwest

Location: Hostomel

Current Time: Feb 20, 2017 at 4:01:27 am

Latest Report: Feb 20, 2017 at 3:30 am


Visibility: 4 mi

Pressure: 30.12 "Hg

Humidity: 87%

Dew Point: 30 °F

Location of ChernobylLocation

Past Weather in Chernobyl — Graph

°F

Chernobyl Temperature Yesterday

Maximum temperature yesterday: 41 °F (at 2:00 pm)
Minimum temperature yesterday: 34 °F (at 1:00 am)
Average temperature yesterday: 36 °F

High & Low Weather Summary for the Past Weeks

 TemperatureHumidityPressure
High41 °F (Feb 19, 2:00 pm)100% (Feb 5, 3:00 am)30.74 "Hg (Feb 5, 3:00 am)
Low-4 °F (Feb 9, 7:00 am)44% (Feb 15, 4:30 pm)29.86 "Hg (Feb 5, 3:00 am)
Average21 °F82%30.38 "Hg
* Reported Feb 5 3:00 am — Feb 20 3:00 am, Chernobyl, Weather by CustomWeather, © 2017

Note: Actual official high and low records may vary slightly from our data, if they occured in-between our weather recording intervals... More about our weather records

Advertising

Chernobyl Weather History for the Previous 24 Hours

Scroll right to see more
 ConditionsComfort  
Time TempWeatherWind HumidityBarometerVisibility
3:00 am
Mon, Feb 20
32 °FChilly.6 mph93%30.12 "Hg4 mi
2:30 am30 °FChilly.6 mph93%30.15 "Hg4 mi
2:00 am32 °FChilly.6 mph87%30.15 "Hg4 mi
1:30 am32 °FChilly.6 mph87%30.15 "Hg5 mi
1:00 am34 °FChilly.6 mph87%30.15 "Hg6 mi
12:30 am34 °FChilly.8 mph87%30.15 "HgN/A
12:00 am36 °FChilly.8 mph81%30.15 "HgN/A
11:30 pm
Sun, Feb 19
36 °FChilly.8 mph81%30.15 "HgN/A
11:00 pm36 °FChilly.8 mph81%30.15 "HgN/A
10:30 pm36 °FChilly.8 mph81%30.18 "HgN/A
10:00 pm36 °FChilly.10 mph81%30.18 "HgN/A
9:30 pm36 °FChilly.8 mph81%30.18 "HgN/A
9:00 pm36 °FChilly.8 mph81%30.18 "HgN/A
8:30 pm36 °FChilly.8 mph81%30.18 "HgN/A
8:00 pm34 °FChilly.8 mph87%30.18 "HgN/A
7:30 pm34 °FChilly.10 mph87%30.18 "Hg6 mi
7:00 pm34 °FChilly.8 mph87%30.18 "Hg5 mi
6:30 pm34 °FChilly.10 mph87%30.18 "Hg6 mi
6:00 pm36 °FChilly.13 mph81%30.18 "Hg6 mi
5:30 pm36 °FChilly.6 mph81%30.18 "Hg6 mi
5:00 pm37 °FChilly.8 mph75%30.18 "Hg6 mi
4:30 pm39 °FChilly.6 mph75%30.18 "HgN/A
4:00 pm41 °FQuite cool.10 mph70%30.18 "HgN/A
3:30 pm41 °FQuite cool.13 mph66%30.18 "HgN/A
3:00 pm41 °FQuite cool.10 mph61%30.21 "HgN/A
2:30 pm41 °FQuite cool.10 mph61%30.21 "HgN/A
2:00 pm41 °FQuite cool.8 mph61%30.21 "HgN/A
1:30 pm39 °FChilly.10 mph70%30.21 "HgN/A
1:00 pm39 °FChilly.10 mph75%30.21 "Hg6 mi
12:30 pm37 °FChilly.8 mph81%30.24 "Hg6 mi
12:00 pm37 °FChilly.10 mph81%30.24 "Hg6 mi
11:30 am37 °FChilly.8 mph81%30.24 "Hg6 mi
11:00 am37 °FChilly.10 mph81%30.24 "Hg5 mi
10:30 am36 °FChilly.6 mph87%30.24 "Hg4 mi
10:00 am36 °FChilly.8 mph87%30.24 "Hg4 mi
9:30 am36 °FChilly.8 mph87%30.24 "Hg4 mi
9:00 am36 °FLight rain. Cloudy.8 mph87%30.24 "Hg4 mi
8:30 am36 °FChilly.8 mph87%30.24 "Hg4 mi
8:00 am36 °FChilly.8 mph87%30.24 "Hg4 mi
7:30 am34 °FChilly.6 mph93%30.21 "Hg4 mi
7:00 am34 °FChilly.6 mph93%30.21 "Hg4 mi
6:30 am34 °FChilly.3 mph93%30.21 "Hg4 mi
6:00 am34 °FChilly.3 mph93%30.21 "Hg4 mi
5:30 am34 °FChilly.3 mph93%30.21 "Hg4 mi
5:00 am34 °FChilly.6 mph93%30.21 "Hg4 mi
4:30 am34 °FChilly.6 mph93%30.21 "Hg4 mi
4:00 am34 °FChilly.6 mph93%30.21 "Hg5 mi
Weather by CustomWeather, © 2017

See weather overviewHow to use our weather pages